This is the latest recevied weather packets stored in our database for station/object JA0ZJX-13. If no packets are shown the sender has not sent any weather packets the latest 10 day(s).
| Time | Temp. | Humidity | Pressure | Rain* | Wind** | Luminosity | Snow |
|---|---|---|---|---|---|---|---|
| 1778007816 | 12.22° C | 66% | 1022.5 hPa | 0 mm | - | 0 W/m² | - |
| 1778007208 | 11.67° C | 67% | 1022.4 hPa | 0 mm | - | 0 W/m² | - |
| 1778006618 | 12.22° C | 66% | 1022.4 hPa | 0 mm | - | 0 W/m² | - |
| 1778006008 | 12.22° C | 66% | 1022.4 hPa | 0 mm | - | 0 W/m² | - |
| 1778005417 | 12.22° C | 66% | 1022.3 hPa | 0 mm | - | 0 W/m² | - |
| 1778004811 | 11.67° C | 66% | 1022.2 hPa | 0 mm | - | 0 W/m² | - |
| 1778004220 | 11.67° C | 67% | 1022.4 hPa | 0 mm | - | 0 W/m² | - |
| 1778003610 | 11.11° C | 69% | 1022.4 hPa | 0 mm | - | 0 W/m² | - |
| 1778003017 | 11.11° C | 70% | 1022.4 hPa | 0 mm | - | 0 W/m² | - |
| 1778002411 | 11.11° C | 70% | 1022.5 hPa | 0 mm | - | 0 W/m² | - |
| 1778001819 | 11.11° C | 72% | 1022.5 hPa | 0 mm | - | 0 W/m² | - |
| 1778001207 | 11.11° C | 71% | 1022.6 hPa | 0 mm | - | 0 W/m² | - |
| 1778000617 | 11.67° C | 70% | 1022.5 hPa | 0 mm | - | 0 W/m² | - |
| 1778000010 | 11.67° C | 68% | 1022.5 hPa | 0 mm | - | 0 W/m² | - |
| 1777999420 | 11.67° C | 68% | 1022.5 hPa | 0 mm | - | 0 W/m² | - |
| 1777998809 | 11.11° C | 71% | 1022.6 hPa | 0 mm | - | 0 W/m² | - |
| 1777998222 | 11.11° C | 71% | 1022.7 hPa | 0 mm | - | 0 W/m² | - |
| 1777997609 | 11.67° C | 70% | 1022.8 hPa | 0 mm | - | 0 W/m² | - |
| 1777997018 | 11.67° C | 69% | 1022.7 hPa | 0 mm | - | 0 W/m² | - |
| 1777996408 | 11.67° C | 68% | 1022.8 hPa | 0 mm | - | 0 W/m² | - |
| 1777995821 | 11.67° C | 68% | 1022.7 hPa | 0 mm | - | 0 W/m² | - |
| 1777995211 | 11.67° C | 68% | 1022.8 hPa | 0 mm | - | 0 W/m² | - |
| 1777994621 | 11.67° C | 68% | 1022.9 hPa | 0 mm | - | 0 W/m² | - |
| 1777994009 | 11.67° C | 68% | 1022.8 hPa | 0 mm | - | 0 W/m² | - |
| 1777993422 | 11.67° C | 67% | 1022.8 hPa | 0 mm | - | 0 W/m² | - |
* Rain latest hour (hover to see other rain measurements)
** Current wind speed in m/s (hover to see current wind gust speed)